Retour au catalogue

LYRA-1

ActifScienceSSO
NORAD 62664·PAYLOAD·🇦🇺 Australia

Lancé Jan 14, 2025 depuis Vandenberg Space Force Base

Loading…

Prochains Passages (prochaines 24 heures)

TLE

FraisSource: Space-Track

Époque: Sep 14, 2026, 15:01 UTC

1 62664U 25009BH  26257.62570722  .00007546  00000-0  35101-3 0  9998
2 62664  97.3905 330.3870 0007441 234.1434 125.9110 15.20211974 92002

Suivez LYRA-1 en temps réel avec AllMySat

Download on the App Store